Find Hawk 12A

NORAD ID: 64623 Int'l Des: 2025-138 Owner: HE360 Country: US Constellation: hawkeye-360 operational
LEOCIRCULARRETROGRADESSO

現在のビュー

3D地球を読み込み中...

About Hawk 12A

Hawk 12A (NORAD 64623) is a hawkeye-360 constellation satellite launched Jun 26, 2025 by HE360 of US. It operates in LEO, CIRCULAR, RETROGRADE, SSO orbit with a mass of 31.00 kg.

Hawk 12Aについて

説明を読み込み中...

次回通過

Passes for default location (London). Set your location on the main map for personalized predictions.

高度履歴

Loading altitude history...

軌道要素

1 64623U 25138C 26194.99730725 .00001936 00000-0 97216-4 0 9992
2 64623 97.4410 197.3338 0015159 50.3904 309.8666 15.18396973 57938
Epoch: Jul 13, 2026 • Age: 15 hours

現在のステータス

高度 538.0 km
遠地点 / 近地点 N/A
速度 7.59 km/s
衛星直下点 -43.82°S, 149°W
打ち上げ日 Jun 26, 2025
運用期間 1 year
タイプ other

技術仕様

分類 Payload
質量 31.00 kg
乾燥質量 30.00 kg
総質量 31.00 kg
長さ 0.45 m
直径 0.30 m
スパン 1.00 m
形状 Box + 2 pan
製造者 UTIAS
バスタイプ Hawk2G
フェーズステータス In Orbit
所有者/国 HE360/US

Most Searched